Details From KEGE - Eagle Co Rgnl
To KPDK - Dekalb Peachtree
Flight Number -
Tags Real Decoded
Created
Modified
Stats Distance 1,138 nm / 2,108 km
Max Altitude 0 ft / 0 m
Waypoints 2
Social Downloads 0
Likes 0
Share VATSIM

Download

Looking for another format? Having issues loading an existing format? Contact us
Advertisement - Login to hide

Notes

Decoded

Route

KEGE KPDK

ID Type Via Altitude Latitude Longitude Leg Dist Tot Dist Heading (true) Name
O KEGE APT - 0 ft / 0 m 39.64472˚ -106.92333˚ - 0 nm - EAGLE CO RGNL
O KPDK APT - 0 ft / 0 m 33.87368˚ -84.30737˚ 1138 nm 1138 nm 101° / 114° -

Altitude Profile

Weather

Temperature
Clouds and Precipitation
Forecast for 2017-01-16 18:00 UTC. Updated 2 hours ago
Winds

KEGE

Details ICAO KEGE (EGE)
Name EAGLE CO RGNL
Region United States
Timezone America/Denver (UTC-7.0)
Stats Elevation 6,540 ft / 1,993 m (AMSL)
Location 39.642567° -106.917696°
Runways 1
Magnetic Variation 9.259° E

METAR

KEGE 161650Z 00000KT 10SM FEW020 BKN038 M01/M03 A3008

Decode

TAF

TAF AMD KEGE 161432Z 1615/1712 00000KT 4SM -SN BR SCT015 SCT060 FM161600 00000KT P6SM BKN035 FM170000 00000KT P6SM OVC050 FM170600 VRB03KT 6SM BR OVC100

Decode

Departure Runways

ID Width Length Bearing (true) Bearing (mag) Surface Threshold Offset Overrun Length
07 150 ft / 46 m 7,981 ft / 2,433 m 81.90° 72.64° Asphalt 0 ft / 0 m 0 ft / 0 m
25 150 ft / 46 m 7,981 ft / 2,433 m 261.92° 252.66° Asphalt 0 ft / 0 m 0 ft / 0 m

KPDK

Details ICAO KPDK (PDK)
Name Dekalb Peachtree
Region United States
Timezone America/New_York (UTC-5.0)
Stats Elevation 1,003 ft / 306 m (AMSL)
Location 33.875424° -84.302177°
Runways 4
Magnetic Variation 5.139° W

METAR

KPDK 161653Z 11006KT 10SM OVC080 18/12 A3031

Decode

TAF

TAF KPDK 161140Z 1612/1712 00000KT 6SM BR BKN070 BKN250 FM161400 10004KT P6SM BKN070 BKN150 FM162100 12006KT P6SM BKN070 BKN150 FM170600 13005KT P6SM BKN030 BKN150

Decode

Destination Runways

ID Width Length Bearing (true) Bearing (mag) Surface Threshold Offset Overrun Length
02L 151 ft / 46 m 3,754 ft / 1,144 m 20.43° 25.57° Asphalt 0 ft / 0 m 0 ft / 0 m
02R 98 ft / 30 m 6,014 ft / 1,833 m 20.42° 25.56° Concrete 0 ft / 0 m 0 ft / 0 m
09 151 ft / 46 m 3,402 ft / 1,037 m 86.38° 91.52° Asphalt 0 ft / 0 m 0 ft / 0 m
16 151 ft / 46 m 3,976 ft / 1,212 m 157.48° 162.62° Asphalt 0 ft / 0 m 0 ft / 0 m
20L 98 ft / 30 m 6,014 ft / 1,833 m 200.42° 205.56° Concrete 1,001 ft / 305 m 0 ft / 0 m
20R 151 ft / 46 m 3,754 ft / 1,144 m 200.43° 205.57° Asphalt 0 ft / 0 m 0 ft / 0 m
27 151 ft / 46 m 3,402 ft / 1,037 m 266.39° 271.53° Asphalt 0 ft / 0 m 0 ft / 0 m
34 151 ft / 46 m 3,976 ft / 1,212 m 337.49° 342.63° Asphalt 0 ft / 0 m 0 ft / 0 m

Approach Navaids

Runway Type Ident Frequency Range Bearing (true) Bearing (mag) Slope Elevation
20L Localiser IPDK 111.10 MHz 18 nm / 33 km 200.42° 205.56° - 989 ft / 301 m (AMSL)
20L Glidescope IPDK 111.10 MHz 10 nm / 19 km 200.42° 205.56° 3.00° 984 ft / 300 m (AMSL)